Location: Home
(42.5358°N, 72.7383°W)
Time: 16:13:05
(UTC-04:00)

Explorer 11/Cluster Stage 4 - Pass Details

Date: 09 August 2024
Orbit: 464 x 1208 km, 28.8° (Epoch: 19 September)

Event Time Altitude Azimuth Distance (km) Brightness Sun altitude
Rises 01:36:49 0° 242° (WSW) 3,595 - -31.0°
Reaches altitude 10° 01:39:43 10° 230° (SW) 2,767 - -30.9°
Maximum altitude 01:45:19 27° 176° (S) 1,976 - -30.7°
Drops below altitude 10° 01:51:32 10° 123° (ESE) 3,092 - -30.4°
Exits shadow 01:52:43 - 118° (ESE) 3,424 9.7 -30.3°
Sets 01:54:58 0° 112° (ESE) 4,097 10.2 -30.2°
